Home   Weather   Modi'in-Maccabim-Re'ut   Past weeks

Flag for Israel Past Weather in Modi'in-Maccabim-Re'ut, Israel — Yesterday and Last 2 Weeks

Now
66 °F

Clear.


Feels Like: 66 °F
Forecast: 53 / 78 °F
Wind: 3 mph from North

Location: Ben Gurion International Airport

Current Time: Apr 27, 2017 at 9:51:18 pm

Latest Report: Apr 27, 2017 at 9:20 pm


Visibility: 10 mi

Pressure: 29.98 "Hg

Humidity: 73%

Dew Point: 57 °F

Location of Modi'in-Maccabim-Re'utLocation

Past Weather in Modi'in-Maccabim-Re'ut — Graph

°F

Modi'in-Maccabim-Re'ut Temperature Yesterday

Maximum temperature yesterday: 79 °F (at 12:20 pm)
Minimum temperature yesterday: 57 °F (at 3:50 am)
Average temperature yesterday: 67 °F

High & Low Weather Summary for the Past Weeks

 TemperatureHumidityPressure
High102 °F (Apr 22, 12:20 pm)88% (Apr 14, 3:20 am)30.12 "Hg (Apr 14, 3:20 am)
Low54 °F (Apr 17, 4:50 am)8% (Apr 22, 11:20 am)29.65 "Hg (Apr 13, 1:50 pm)
Average69 °F58%29.97 "Hg
* Reported Apr 12 8:20 pm — Apr 27 8:20 pm, Modi'in-Maccabim-Re'ut, Weather by CustomWeather, © 2017

Note: Actual official high and low records may vary slightly from our data, if they occured in-between our weather recording intervals... More about our weather records

Advertising

Modi'in-Maccabim-Re'ut Weather History for the Previous 24 Hours

Scroll right to see more
 ConditionsComfort  
Time TempWeatherWind HumidityBarometerVisibility
8:20 pm
Thu, Apr 27
68 °FClear.6 mph69%29.95 "Hg10 mi
7:50 pm68 °FClear.6 mph69%29.95 "Hg10 mi
7:20 pm68 °FClear.7 mph69%29.95 "Hg10 mi
6:50 pm70 °FSunny.7 mph60%29.95 "Hg10 mi
6:20 pm70 °FSunny.7 mph64%29.95 "Hg10 mi
5:50 pm70 °FSunny.7 mph64%29.95 "Hg10 mi
5:20 pm72 °FSunny.10 mph61%29.95 "Hg10 mi
4:50 pm72 °FSunny.12 mph61%29.95 "Hg10 mi
4:20 pm73 °FSunny.12 mph57%29.95 "Hg10 mi
3:50 pm73 °FPassing clouds.10 mph57%29.95 "HgN/A
3:20 pm75 °FSunny.12 mph54%29.95 "Hg10 mi
2:50 pm75 °FSunny.10 mph54%29.95 "Hg10 mi
2:20 pm75 °FPassing clouds.9 mph54%29.95 "HgN/A
1:50 pm73 °FPassing clouds.10 mph57%29.95 "HgN/A
1:20 pm75 °FPassing clouds.9 mph54%29.95 "HgN/A
12:50 pm75 °FPassing clouds.12 mph50%29.95 "HgN/A
12:20 pm75 °FPassing clouds.13 mph57%29.95 "HgN/A
11:50 am75 °FPassing clouds.12 mph57%29.98 "HgN/A
11:20 am75 °FPassing clouds.12 mph57%29.95 "HgN/A
10:50 am75 °FSunny.2 mph54%29.95 "Hg10 mi
10:20 am73 °FSunny.5 mph57%29.95 "Hg10 mi
9:50 am72 °FSunny.6 mph61%29.98 "Hg10 mi
9:20 am70 °FPassing clouds.7 mph69%29.98 "HgN/A
8:50 am68 °FPassing clouds.8 mph73%29.98 "HgN/A
8:20 am66 °FPassing clouds.6 mph78%29.95 "HgN/A
7:50 am66 °FClear.5 mph78%29.98 "Hg6 mi
7:20 am64 °FClear.5 mph83%29.95 "Hg5 mi
6:50 am64 °FClear.5 mph83%29.95 "Hg5 mi
6:20 am63 °FClear.5 mph88%29.95 "Hg5 mi
5:50 am63 °FPassing clouds.3 mph88%29.92 "HgN/A
5:20 am64 °FPassing clouds.3 mph88%29.92 "HgN/A
4:50 am64 °FPassing clouds.6 mph88%29.92 "HgN/A
4:20 am64 °FPassing clouds.5 mph88%29.95 "HgN/A
3:50 am64 °FPassing clouds.5 mph88%29.95 "HgN/A
3:20 am64 °FPassing clouds.5 mph88%29.95 "HgN/A
2:50 am64 °FPassing clouds.5 mph88%29.95 "HgN/A
1:50 am64 °FPassing clouds.5 mph88%29.95 "HgN/A
12:50 am66 °FPassing clouds.6 mph83%29.98 "HgN/A
12:20 am64 °FPassing clouds.5 mph88%29.98 "HgN/A
11:50 pm
Wed, Apr 26
66 °FPassing clouds.5 mph83%29.98 "HgN/A
11:20 pm66 °FPassing clouds.5 mph83%29.98 "HgN/A
10:50 pm66 °FPassing clouds.5 mph83%29.98 "HgN/A
10:20 pm66 °FPassing clouds.3 mph83%29.95 "HgN/A
9:50 pm66 °FClear.3 mph78%29.95 "Hg10 mi
Weather by CustomWeather, © 2017

See weather overviewHow to use our weather pages